Location: Madrid
(40.4000°N, 3.6830°W)
Time: 06:30:04
(UTC+01:00)

ISS - Pass Details

Date: 27 November 2020
Orbit: 418 x 420 km, 51.6° (Epoch: 04 December)

Event Time Altitude Azimuth Distance (km) Brightness Sun altitude
Rises 18:56:06 0° 285° (WNW) 2,360 1.1 -12.4°
Reaches altitude 10° 18:58:53 10° 310° (NW) 1,497 -0.5 -12.9°
Maximum altitude 19:00:55 15° 347° (NNW) 1,236 -1.4 -13.3°
Enters shadow 19:02:32 11° 18° (NNE) 1,412 -1.4 -13.6°
